F5MAP-5 Weather Reports


Display with metric or nautical units.
time (UTC)temp
F
wind
direction
speed
MPH
gust
MPH
rain 1hr
in
rain 24hr
in
rain mn
in
humidity
%
barometer
mb
20260905221213 62 13 0.0 1.0 0.00 0.01 0.00 83 1025.2
20260905220212 62 42 0.0 1.0 0.00 0.01 0.00 83 1025.2
20260905215212 62 42 0.0 3.0 0.00 0.01 0.01 82 1025.2
20260905214212 62 5 0.0 1.0 0.00 0.01 0.01 82 1025.2
20260905213212 63 63 0.0 0.0 0.00 0.01 0.01 82 1025.2
20260905212212 63 150 0.0 2.0 0.00 0.01 0.01 81 1025.1
20260905211212 64 79 0.0 3.0 0.00 0.01 0.01 81 1025.0
20260905210212 64 338 1.0 3.0 0.00 0.01 0.01 80 1024.8
20260905205212 64 348 2.0 3.0 0.00 0.01 0.01 80 1024.8
20260905204212 64 159 0.0 0.0 0.00 0.01 0.01 79 1024.8
20260905203212 65 302 0.0 1.0 0.00 0.01 0.01 79 1024.7
20260905202212 65 302 0.0 3.0 0.00 0.01 0.01 79 1024.5
20260905201212 65 238 0.0 2.0 0.00 0.01 0.01 79 1024.6
20260905200212 66 302 0.0 2.0 0.00 0.01 0.01 78 1024.4
20260905195212 66 302 0.0 2.0 0.00 0.01 0.01 78 1024.1
20260905194212 66 213 2.0 4.0 0.00 0.01 0.01 77 1024.0
20260905193212 67 241 0.0 2.0 0.00 0.01 0.01 77 1024.0
20260905192212 67 198 0.0 0.0 0.00 0.01 0.01 76 1023.9
20260905191212 68 182 0.0 0.0 0.00 0.01 0.01 74 1023.8
20260905190212 69 163 0.0 3.0 0.00 0.01 0.01 73 1023.7
20260905185212 69 150 1.0 2.0 0.00 0.01 0.01 72 1023.6
20260905184212 70 157 0.0 0.0 0.00 0.01 0.01 71 1023.5
20260905183212 71 155 0.0 0.0 0.00 0.01 0.01 69 1023.5
20260905182212 71 137 1.0 2.0 0.00 0.01 0.01 68 1023.3
20260905181212 72 186 0.0 1.0 0.00 0.01 0.01 66 1023.2
20260905180212 73 186 1.0 4.0 0.00 0.01 0.01 65 1023.1
20260905175212 74 173 2.0 5.0 0.00 0.01 0.01 65 1023.0
20260905174212 74 137 1.0 2.0 0.00 0.01 0.01 63 1023.0
20260905173212 75 159 1.0 4.0 0.00 0.01 0.01 62 1023.0
20260905172212 75 157 2.0 4.0 0.00 0.01 0.01 61 1023.1
20260905171212 76 198 2.0 3.0 0.00 0.01 0.01 60 1022.9
20260905170212 76 178 3.0 5.0 0.00 0.01 0.01 59 1022.9
20260905165212 76 219 2.0 5.0 0.00 0.01 0.01 57 1022.9
20260905164212 76 198 2.0 5.0 0.00 0.01 0.01 56 1022.8
20260905163212 76 215 2.0 5.0 0.00 0.01 0.01 57 1022.8
20260905162212 76 261 3.0 6.0 0.00 0.01 0.01 57 1022.8
20260905161212 76 239 2.0 7.0 0.00 0.01 0.01 58 1022.7
20260905160212 76 197 4.0 5.0 0.00 0.01 0.01 59 1022.7
20260905155212 76 183 4.0 7.0 0.00 0.01 0.01 60 1022.7
20260905154212 76 154 4.0 8.0 0.00 0.01 0.01 60 1022.6
20260905153212 76 188 3.0 9.0 0.00 0.01 0.01 62 1022.6
20260905152212 76 165 3.0 9.0 0.00 0.01 0.01 64 1022.7
20260905151212 76 212 5.0 9.0 0.00 0.01 0.01 64 1022.7
20260905150212 76 242 7.0 12.0 0.00 0.01 0.01 63 1022.7
20260905145212 76 213 6.0 13.0 0.00 0.01 0.01 66 1022.7
20260905144212 76 155 4.0 9.0 0.00 0.01 0.01 67 1022.8
20260905143212 76 192 7.0 12.0 0.00 0.01 0.01 67 1022.9
20260905142212 75 206 5.0 12.0 0.00 0.01 0.01 68 1022.9
20260905141212 75 180 5.0 11.0 0.00 0.01 0.01 69 1022.9
20260905140212 76 184 6.0 14.0 0.00 0.01 0.01 68 1022.9
20260905135212 76 310 6.0 10.0 0.00 0.01 0.01 68 1022.9
20260905134212 76 204 7.0 11.0 0.00 0.01 0.01 69 1023.1
20260905133213 75 196 8.0 13.0 0.00 0.01 0.01 68 1023.1
20260905132212 75 247 7.0 13.0 0.00 0.01 0.01 69 1023.1
20260905131212 75 182 6.0 10.0 0.00 0.01 0.01 70 1023.2
20260905130212 75 200 4.0 14.0 0.00 0.01 0.01 70 1023.2
20260905125212 75 207 4.0 14.0 0.00 0.01 0.01 71 1023.2
20260905124212 74 194 4.0 11.0 0.00 0.01 0.01 72 1023.1
20260905123212 75 237 9.0 14.0 0.00 0.01 0.01 71 1023.0
20260905122212 75 210 7.0 16.0 0.00 0.01 0.01 70 1023.1
20260905121212 74 229 9.0 13.0 0.00 0.01 0.01 69 1023.1
20260905120212 74 220 7.0 13.0 0.00 0.01 0.01 70 1023.2
20260905115212 74 228 6.0 12.0 0.00 0.01 0.01 71 1023.0
20260905114211 74 228 7.0 14.0 0.00 0.01 0.01 73 1023.1
20260905113211 74 212 6.0 14.0 0.00 0.01 0.01 72 1022.9
20260905112212 74 205 6.0 12.0 0.00 0.01 0.01 71 1023.0
20260905111211 74 205 6.0 10.0 0.00 0.01 0.01 72 1023.1
20260905110211 74 225 6.0 13.0 0.00 0.01 0.01 74 1023.0
20260905105212 73 234 6.0 11.0 0.00 0.01 0.01 76 1023.0
20260905104211 72 239 4.0 7.0 0.00 0.01 0.01 77 1023.0
20260905103211 72 218 3.0 6.0 0.00 0.01 0.01 80 1023.0
20260905102211 71 246 3.0 6.0 0.00 0.01 0.01 83 1022.9
20260905101211 70 157 2.0 4.0 0.00 0.01 0.01 87 1022.8
20260905100211 69 259 1.0 3.0 0.00 0.01 0.01 89 1022.7
20260905095211 69 205 3.0 6.0 0.00 0.01 0.01 90 1022.7
20260905094212 69 148 3.0 6.0 0.00 0.01 0.01 91 1022.6
20260905093212 69 258 4.0 7.0 0.00 0.01 0.01 91 1022.7
20260905092211 69 156 2.0 5.0 0.00 0.01 0.01 91 1022.6
20260905091211 69 172 2.0 5.0 0.00 0.01 0.01 91 1022.5
20260905090211 68 216 1.0 3.0 0.00 0.01 0.01 91 1022.2
20260905085211 68 174 2.0 5.0 0.00 0.01 0.01 91 1022.2
20260905084211 68 186 3.0 6.0 0.00 0.00 0.00 91 1022.1
20260905083211 67 155 2.0 4.0 0.00 0.00 0.00 91 1022.1
20260905082211 67 152 0.0 0.0 0.00 0.00 0.00 91 1022.1
20260905081211 67 24 0.0 0.0 0.00 0.00 0.00 92 1022.1
20260905080211 67 24 0.0 0.0 0.00 0.00 0.00 92 1021.9
20260905075211 67 348 0.0 0.0 0.00 0.00 0.00 92 1021.9
20260905074211 67 33 0.0 0.0 0.00 0.00 0.00 92 1021.8
20260905073211 67 342 0.0 0.0 0.00 0.00 0.00 92 1021.8
20260905072211 67 324 0.0 0.0 0.00 0.00 0.00 92 1021.7
20260905071211 66 217 0.0 0.0 0.00 0.00 0.00 92 1021.4
20260905070211 66 243 0.0 0.0 0.00 0.00 0.00 91 1021.4
20260905065211 66 243 0.0 0.0 0.00 0.00 0.00 91 1021.2
20260905064211 66 243 0.0 0.0 0.00 0.00 0.00 91 1021.1
20260905063211 66 159 0.0 0.0 0.00 0.00 0.00 91 1021.0
20260905062211 66 315 0.0 0.0 0.00 0.00 0.00 91 1021.0
20260905061211 66 315 0.0 4.0 0.00 0.00 0.00 91 1021.0
20260905060211 66 348 3.0 5.0 0.00 0.00 0.00 90 1021.1
20260905055211 66 343 2.0 5.0 0.00 0.00 0.00 90 1021.0
20260905054211 66 346 3.0 8.0 0.00 0.00 0.00 90 1020.8
20260905053211 65 331 2.0 3.0 0.00 0.00 0.00 90 1020.4
20260905052211 65 82 1.0 4.0 0.00 0.00 0.00 89 1020.2
20260905051212 66 120 2.0 4.0 0.00 0.00 0.00 89 1019.9
20260905050211 66 89 3.0 7.0 0.00 0.00 0.00 88 1019.9
20260905045211 66 107 1.0 4.0 0.00 0.00 0.00 87 1020.0
20260905044211 66 105 3.0 6.0 0.00 0.00 0.00 86 1020.0
20260905043211 66 87 4.0 7.0 0.00 0.00 0.00 85 1019.9
20260905042211 66 61 2.0 4.0 0.00 0.00 0.00 84 1019.6
20260905041211 66 70 1.0 4.0 0.00 0.00 0.00 83 1019.4
20260905040211 67 58 4.0 6.0 0.00 0.00 0.00 83 1019.4
20260905035211 67 234 0.0 0.0 0.00 0.00 0.00 82 1019.4
20260905034211 67 253 0.0 0.0 0.00 0.00 0.00 80 1019.3
20260905033211 66 138 0.0 3.0 0.00 0.00 0.00 79 1018.8
20260905032211 66 188 2.0 5.0 0.00 0.00 0.00 79 1018.9
20260905031211 66 259 2.0 4.0 0.00 0.00 0.00 79 1019.0
20260905030211 66 217 0.0 3.0 0.00 0.00 0.00 79 1018.9
20260905025211 66 207 2.0 4.0 0.00 0.00 0.00 79 1018.9
20260905024211 66 254 0.0 0.0 0.00 0.00 0.00 79 1018.8
20260905023211 66 184 3.0 5.0 0.00 0.00 0.00 79 1018.7
20260905022211 67 173 0.0 2.0 0.00 0.00 0.00 79 1018.5
20260905021211 67 192 0.0 2.0 0.00 0.00 0.00 78 1018.7